カタログに戻る

OASIS ALPHA

運用中科学SSO
NORAD 69880·PAYLOAD·🇩🇪 Germany
この衛星名は、まだ公式ソースで確認されていません。

打ち上げ Jul 7, 2026 から Vandenberg Space Force Base

Loading…

次のパス (今後24時間)

TLE

最新Source: Space-Track

元期: Sep 14, 2026, 04:37 UTC

1 69880U 26156M   26257.19279434  .00001554  00000-0  16194-3 0  9991
2 69880  97.7374 156.3535 0003163 246.2680 113.8207 14.91200146 10268

AllMySatでOASIS ALPHAをリアルタイム追跡

Download on the App Store